Content
SEND FEEDBACK

Daily
Averages
Monthly
Summary
United States of America

SEWARD, ALASKA


Home > North America > United States > Alaska
Elevation: 25 feet     Latitude: 60 07N     Longitude: 149 25W

WEATHER
 
SELECT A DAY
Number of Records: 198,436;   Date Range: 1/1/95 - 9/18/14
 
SHARE

PRINT THIS DATA

[ ← Previous Day ]
WEATHER ALMANAC - FEBRUARY 13, 2013
[ Next Day → ]
[ °C ]   °F
Weather ElementAverageHighLow
Temperature34.4 °F37.4 °F (1:31 pm)33.1 °F (3:53 am)
Dewpoint32.3 °F35.6 °F (1:31 pm)30 °F (7:53 am)
Humidity92.3 %100 % (4:53 am)75 % (7:21 pm)
Barometer29.77 in29.85 in (9:37 am)29.65 in (11:53 pm)
Wind Speed5 mph19.6 mph (1:41 pm)
Wind Gust26.5 mph (1:41 pm)
Weather ElementAverage
Visibility5.3 mi
Wind DirectionESE (106.6 °)

Weather ElementTotal
Precipitation0.90 in
Heating Degree Days29.8 (Base 65)
Averaged from 67 records on February 13, 2013
WEATHER CONDITIONS BREAKOUT
WIND DIRECTION BREAKOUT
WEATHER BY HOUR - FEBRUARY 13, 2013
[ °C ]   °F
Local TimeTemperatureDewpointHumidityBarometerVisibilityWind DirectionWind SpeedGust SpeedPrecipitationEventsConditions
12:19 AM33.8 °F32.0 °F93 %29.69 in2.0 miNNE (20°)5.8 mph0.00 inSnowLight Snow
12:29 AM33.8 °F32.0 °F93 %29.70 in1.8 miNNW (340°)6.9 mph0.00 inSnowLight Snow
12:53 AM34.0 °F32.0 °F92 %29.70 in6.0 miNE (50°)4.6 mph0.00 inSnowLight Snow
1:13 AM33.8 °F32.0 °F93 %29.71 in1.8 miVariable4.6 mph0.00 inSnowLight Snow
1:28 AM33.8 °F32.0 °F93 %29.71 in4.0 miNE (50°)3.5 mph0.00 inSnowLight Snow
1:50 AM33.8 °F32.0 °F93 %29.72 in3.0 miNNE (20°)4.6 mph0.00 inSnowLight Snow
1:53 AM34.0 °F32.0 °F92 %29.72 in2.5 miNNE (20°)3.5 mph0.00 inSnowLight Snow
2:00 AM33.8 °F32.0 °F93 %29.72 in5.0 miCalm0.00 inSnowLight Snow
2:16 AM33.8 °F32.0 °F93 %29.73 in5.0 miCalm0.00 inSnowLight Snow
2:28 AM33.8 °F32.0 °F93 %29.73 in1.0 miCalm0.00 inSnowLight Snow
2:35 AM33.8 °F32.0 °F93 %29.73 in1.2 miCalm0.00 inSnowLight Snow
2:43 AM33.8 °F32.0 °F93 %29.73 in3.0 miNNE (30°)3.5 mph0.00 inSnowLight Snow
3:18 AM33.8 °F32.0 °F93 %29.75 in2.0 miCalm0.00 inSnowLight Snow
3:38 AM33.8 °F32.0 °F93 %29.76 in2.0 miCalm0.00 inSnowLight Snow
3:53 AM33.1 °F32.0 °F96 %29.77 in1.2 miCalm0.00 inSnowLight Snow
4:29 AM33.8 °F32.0 °F93 %29.78 in2.5 miSSE (150°)3.5 mph0.00 inSnowLight Snow
4:53 AM33.1 °F33.1 °F100 %29.79 in8.0 miCalm0.00 inOvercast
5:45 AM33.8 °F33.8 °F100 %29.80 in4.0 miCalm0.00 inSnowLight Snow
5:53 AM33.1 °F33.1 °F100 %29.80 in2.5 miCalm0.00 inSnowLight Snow
6:08 AM33.8 °F33.8 °F100 %29.80 in5.0 miSouth (190°)3.5 mph0.00 inOvercast
6:28 AM33.8 °F33.8 °F100 %29.80 in7.0 miCalm0.00 inOvercast
6:53 AM35.1 °F33.1 °F92 %29.81 in9.0 miSouth (190°)8.1 mph0.00 inOvercast
7:08 AM35.6 °F33.8 °F93 %29.81 in10.0 miVariable4.6 mphOvercast
7:37 AM35.6 °F30.2 °F81 %29.82 in10.0 miSouth (170°)12.7 mph23.0 mphOvercast
7:53 AM36.0 °F30.0 °F79 %29.83 in10.0 miSSE (160°)11.5 mph18.4 mphOvercast
8:53 AM36.0 °F30.0 °F79 %29.83 in10.0 miSSW (210°)5.8 mph0.01 inOvercast
9:24 AM33.8 °F30.2 °F87 %29.84 in2.0 miSSE (160°)11.5 mph17.3 mph0.00 inSnowLight Snow
9:37 AM33.8 °F32.0 °F93 %29.85 in3.0 miSouth (170°)5.8 mph0.01 inOvercast
9:39 AM33.8 °F32.0 °F93 %29.85 in1.2 miSouth (180°)5.8 mph0.01 inSnowLight Snow
9:42 AM33.8 °F32.0 °F93 %29.85 in0.8 miSouth (190°)6.9 mph0.01 inSnowLight Snow
9:49 AM33.8 °F33.8 °F100 %29.85 in1.5 miSouth (170°)4.6 mph0.01 inSnowLight Snow
9:51 AM33.8 °F33.8 °F100 %29.85 in3.0 miSSE (160°)3.5 mph0.01 inSnowLight Snow
9:53 AM34.0 °F33.1 °F96 %29.85 in6.0 miSSE (160°)5.8 mph0.01 inSnowLight Snow
9:57 AM33.8 °F33.8 °F100 %29.84 in9.0 miSSE (160°)4.6 mph0.01 inOvercast
10:53 AM34.0 °F33.1 °F96 %29.85 in9.0 miCalm0.04 inSnowLight Snow
11:03 AM33.8 °F32.0 °F93 %29.85 in2.0 miCalm0.01 inSnowLight Snow
11:13 AM33.8 °F32.0 °F93 %29.85 in0.5 miSSW (200°)6.9 mph0.02 inFog-SnowSnow
11:27 AM33.8 °F33.8 °F100 %29.84 in1.0 miSouth (190°)5.8 mph0.03 inSnowLight Snow
11:30 AM33.8 °F33.8 °F100 %29.84 in2.0 miSW (220°)4.6 mph0.03 inSnowLight Snow
11:53 AM35.1 °F32.0 °F89 %29.84 in3.0 miSSE (160°)6.9 mph0.04 inSnowLight Snow
12:53 PM34.0 °F32.0 °F92 %29.83 in2.5 miSSE (150°)15.0 mph19.6 mph0.06 inSnowLight Snow
1:03 PM35.6 °F33.8 °F93 %29.83 in9.0 miSSE (160°)6.9 mph17.3 mph0.01 inOvercast
1:31 PM37.4 °F35.6 °F93 %29.82 in10.0 miSSW (200°)15.0 mph24.2 mph0.05 inOvercast
1:41 PM37.4 °F35.6 °F93 %29.83 in7.0 miSE (140°)19.6 mph26.5 mph0.07 inSnowLight Snow
1:50 PM35.6 °F35.6 °F100 %29.82 in6.0 miSE (140°)12.7 mph0.08 inSnowLight Snow
1:53 PM36.0 °F34.0 °F93 %29.82 in7.0 miSE (140°)13.8 mph0.09 inSnowLight Snow
2:53 PM36.0 °F30.9 °F82 %29.82 in3.0 miSouth (170°)12.7 mph19.6 mph0.04 inSnowLight Snow
2:55 PM35.6 °F30.2 °F81 %29.82 in1.8 miSSE (160°)12.7 mph19.6 mph0.01 inSnowLight Snow
3:10 PM33.8 °F32.0 °F93 %29.80 in3.0 miESE (110°)5.8 mph0.02 inSnowLight Snow
3:53 PM35.1 °F32.0 °F89 %29.78 in10.0 miNNE (20°)4.6 mph0.06 inMostly Cloudy
4:53 PM34.0 °F32.0 °F92 %29.74 in10.0 miCalm0.05 inOvercast
5:53 PM35.1 °F30.9 °F85 %29.73 in10.0 miESE (110°)4.6 mph0.03 inOvercast
6:53 PM36.0 °F30.0 °F79 %29.72 in9.0 miSouth (180°)9.2 mph0.02 inSnowLight Snow
7:21 PM37.4 °F30.2 °F75 %29.71 in9.0 miSouth (170°)5.8 mph0.01 inSnowLight Snow
7:53 PM35.1 °F30.9 °F85 %29.71 in10.0 miCalm0.03 inSnowLight Snow
8:17 PM33.8 °F32.0 °F93 %29.71 in7.0 miNNE (30°)4.6 mph0.00 inSnowLight Snow
8:25 PM33.8 °F32.0 °F93 %29.71 in9.0 miNorth (10°)4.6 mph0.00 inSnowLight Snow
8:51 PM33.8 °F32.0 °F93 %29.69 in4.0 miNNW (330°)3.5 mph0.00 inSnowLight Snow
8:53 PM33.1 °F32.0 °F96 %29.69 in4.0 miNNW (330°)4.6 mph0.00 inSnowLight Snow
9:46 PM33.8 °F32.0 °F93 %29.67 in7.0 miCalm0.01 inSnowLight Snow
9:53 PM33.1 °F32.0 °F96 %29.68 in9.0 miCalm0.01 inSnowLight Snow
10:14 PM33.8 °F32.0 °F93 %29.67 in5.0 miCalm0.00 inSnowLight Snow
10:24 PM33.8 °F32.0 °F93 %29.66 in5.0 miEast (80°)3.5 mph0.00 inSnowLight Snow
10:53 PM34.0 °F32.0 °F92 %29.66 in7.0 miNorth (350°)4.6 mph0.00 inSnowLight Snow
11:15 PM33.8 °F32.0 °F93 %29.66 in9.0 miCalm0.00 inSnowLight Snow
11:34 PM35.6 °F32.0 °F87 %29.66 in10.0 miSE (140°)9.2 mph0.00 inOvercast
11:53 PM35.1 °F32.0 °F89 %29.65 in9.0 miWNW (300°)4.6 mph0.00 inSnowLight Snow
Hourly data recorded from PAWD, located miles away from Seward, Alaska







STORIES FROM OUR PARTNERS